Flag for Croatia Weather past 2 weeks in Zagreb, Croatia

52 °F


Feels Like: 51 °F
Forecast: 51 / 57 °F
Wind: 3 mph from Northeast

Location: Zagreb / Pleso

Current Time: Oct 10, 2015 at 12:23:09 AM

Latest Report: Oct 10, 2015 at 12:00 AM

Visibility: 4 mi

Pressure: 30.09 "Hg

Humidity: 88%

Dew point: 48 °F

Location of ZagrebLocation

Historic Weather in Zagreb — Graph


Zagreb temperature yesterday

Maximum temperature yesterday: 61 °F (at 1:00 PM)
Minimum temperature yesterday: 52 °F (at 5:30 AM)
Average temperature yesterday: 56 °F

Past Weeks' High & Low Weather Summary

High73 °F (Oct 5, 4:00 PM)94% (Sep 24, 11:00 PM)30.42 "Hg (Sep 24, 11:00 PM)
Low48 °F (Oct 2, 11:00 PM)46% (Oct 2, 1:30 PM)29.80 "Hg (Oct 7, 3:30 AM)
Average57 °F77%30.16 "Hg
* Reported Sep 24 11:00 PM — Oct 9 11:00 PM, Zagreb, Weather by CustomWeather, © 2015

Note: Actual official high and low records may vary slightly from our data, if they occured in-between our weather recording intervals... More about our weather records


Zagreb weather history for previous 24 hours

Time TempWeatherWind HumidityBarometerVisibility
11:00 PM
Fri, Oct 9
52 °FClear.3 mph94%30.09 "Hg4 mi
10:30 PM52 °FClear.2 mph94%30.09 "Hg5 mi
10:00 PM54 °FClear.2 mph88%30.09 "Hg10 mi
9:30 PM54 °FClear.2 mph88%30.09 "Hg10 mi
9:00 PM54 °FPassing clouds.2 mph88%30.09 "HgN/A
8:30 PM55 °FPassing clouds.5 mph88%30.09 "HgN/A
8:00 PM57 °FOvercast.3 mph82%30.09 "HgN/A
7:30 PM57 °FOvercast.1 mph82%30.09 "HgN/A
7:00 PM57 °FPartly sunny.2 mph82%30.09 "HgN/A
6:30 PM57 °FOvercast.2 mph88%30.09 "HgN/A
6:00 PM59 °FOvercast.3 mph82%30.09 "HgN/A
5:30 PM59 °FOvercast.5 mph82%30.09 "HgN/A
5:00 PM59 °FBroken clouds.3 mph82%30.09 "HgN/A
4:30 PM59 °FCloudy.6 mph82%30.09 "HgN/A
4:00 PM59 °FMore clouds than sun.5 mph82%30.09 "HgN/A
3:30 PM59 °FMore clouds than sun.5 mph82%30.09 "HgN/A
3:00 PM59 °FOvercast.7 mph82%30.07 "HgN/A
2:30 PM61 °FBroken clouds.6 mph77%30.07 "HgN/A
2:00 PM61 °FPartly sunny.3 mph77%30.09 "HgN/A
1:30 PM61 °FPartly sunny.3 mph77%30.09 "HgN/A
1:00 PM61 °FPartly sunny.5 mph77%30.09 "HgN/A
12:30 PM59 °FPartly sunny.2 mph82%30.09 "Hg5 mi
12:00 PM59 °FScattered clouds.No wind82%30.12 "Hg4 mi
11:30 AM57 °FLow clouds.1 mph82%30.12 "Hg4 mi
11:00 AM57 °FLow clouds.1 mph82%30.12 "Hg4 mi
10:30 AM55 °FLow clouds.1 mph88%30.12 "Hg4 mi
10:00 AM55 °FLow clouds.1 mph88%30.12 "Hg4 mi
9:30 AM55 °FFog.1 mph82%30.12 "Hg3 mi
9:00 AM55 °FFog.1 mph82%30.12 "Hg3 mi
8:30 AM54 °FFog.1 mph88%30.09 "Hg3 mi
8:00 AM54 °FFog.No wind88%30.09 "Hg3 mi
7:30 AM54 °FMostly cloudy.1 mph88%30.09 "Hg4 mi
7:00 AM52 °FDrizzle. Low clouds.1 mph94%30.09 "Hg5 mi
6:30 AM52 °FDrizzle. Mostly cloudy.No wind94%30.09 "HgN/A
6:00 AM52 °FPartly cloudy.3 mph94%30.09 "HgN/A
5:30 AM52 °FPartly cloudy.3 mph94%30.09 "HgN/A
5:00 AM54 °FPartly cloudy.3 mph88%30.07 "HgN/A
4:30 AM54 °FMostly cloudy.5 mph88%30.07 "HgN/A
4:00 AM54 °FMostly cloudy.3 mph88%30.07 "HgN/A
3:30 AM54 °FMostly cloudy.2 mph88%30.09 "HgN/A
3:00 AM54 °FMostly cloudy.2 mph94%30.09 "HgN/A
2:30 AM55 °FLow clouds.6 mph88%30.09 "HgN/A
2:00 AM55 °FLow clouds.5 mph88%30.09 "HgN/A
1:30 AM55 °FPassing clouds.3 mph88%30.09 "HgN/A
1:00 AM55 °FPassing clouds.3 mph88%30.09 "HgN/A
12:30 AM55 °FPassing clouds.5 mph94%30.09 "HgN/A
12:00 AM57 °FPassing clouds.3 mph88%30.09 "HgN/A
Weather by CustomWeather, © 2015

See weather overviewHow to use our weather pages